Location: B�rgermoos
(47.6500°N, 9.0667°E)
Time: 17:36:16
(UTC+00:00)

Vanguard 1 - Pass Details

Date: 09 August 2021
Orbit: 652 x 3831 km, 34.3° (Epoch: 17 September)

Event Time Altitude Azimuth Distance (km) Brightness Sun altitude
Rises 11:18:42 0° 249° (WSW) 3,039 12.7 58.0°
Reaches altitude 10° 11:21:35 10° 227° (SW) 2,282 12.4 58.0°
Maximum altitude 11:24:52 17° 187° (S) 2,101 12.6 58.0°
Drops below altitude 10° 11:28:59 10° 149° (SSE) 2,979 13.1 58.1°
Sets 11:33:36 0° 132° (SE) 4,495 13.7 58.0°
